[[{"header":{"parameterUnit":"m.s-1","parameterCategory":1,"la1":30.2991,"la2":30.254,"lo1":-89.0895,"lo2":-89.0444,"dy":0.0017,"dx":0.0017,"nx":28,"ny":28,"refTime":"2023-10-01T21:00:00:Z","depth":0,"parameterNumber":2,"parameterNumberName":"U-component_of_WINDS"},"data":[0,0,0,0,0,0,0,0,0,0,0,0,0,0,0,0,0,0,0,0,0,0,0,0,0,0,0,0,0,0,0,0,0,0,0,0,0,0,0,0,0,0,0,0,0,0,0,0,0,0,0,0,0,0,0,0,0,0,-5.8371,-5.8372,0,-5.8488,-5.849,-5.8491,-5.8316,-5.831,-5.8304,-5.8298,-5.8422,-5.8431,-5.844,0,0,0,0,0,0,0,0,0,0,0,0,0,-5.8,-5.8008,-5.8371,-5.8372,-5.8374,-5.8488,-5.849,-5.8491,-5.8317,-5.831,-5.8302,-5.8295,-5.8419,-5.843,-5.8441,0,0,0,0,0,0,0,0,0,0,0,0,0,-5.8144,-5.801,-5.8371,-5.8301,-5.8295,-5.8488,-5.849,-5.8492,-5.8319,-5.831,-5.83,-5.8292,-5.8416,-5.8429,-5.8442,-5.871,0,0,-5.8484,-5.849,0,0,0,0,0,0,0,0,-5.8136,-5.8158,-5.831,-5.8306,-5.83,-5.8378,-5.8404,-5.8565,-5.8321,-5.831,-5.8298,-5.8287,-5.8415,-5.8428,-5.8471,-5.8716,-5.8721,-5.8485,-5.8493,-5.8499,-5.8503,0,0,0,0,0,0,0,-5.8126,-5.8152,-5.8417,-5.8312,-5.8306,-5.8265,-5.8275,-5.8434,-5.8413,-5.831,-5.8298,-5.8314,-5.8411,-5.8458,-5.8472,-5.8723,-5.8485,-5.8497,-5.8505,-5.851,-5.9196,-5.9205,0,0,0,0,0,0,-5.8124,-5.8144,-5.8414,-5.8421,-5.8194,-5.8279,-5.829,-5.8363,-5.8411,-5.8409,-5.8322,-5.8305,-5.8439,-5.8457,-5.8476,-5.8794,-5.8499,-5.8512,-5.8519,-5.9186,-5.9198,-5.9209,0,0,0,0,0,0,-5.8117,-5.815,-5.8409,-5.8279,-5.8309,-5.8295,-5.8378,-5.837,-5.8416,-5.8419,-5.8415,-5.8373,-5.8433,-5.8457,-5.8653,-5.8796,-5.8518,-5.853,-5.9174,-5.9189,-5.9203,-5.9431,0,0,0,0,0,0,-5.8107,-5.8148,-5.8249,-5.8283,-5.8317,-5.8584,-5.8386,-5.8379,-5.844,-5.8419,-5.8467,-5.8466,-5.8428,-5.8634,-5.8667,-5.8809,-5.8541,-5.9161,-5.9181,-5.9199,-5.9411,-5.9452,-5.9488,0,0,0,0,0,-5.8094,-5.8309,-5.8255,-5.8288,-5.8442,-5.8592,-5.8612,-5.8562,-5.8452,-5.8554,-5.8556,-5.8464,-5.8775,-5.8656,-5.8691,-5.884,-5.9152,-5.9175,-5.9197,-5.9394,-5.9444,-5.9487,0,0,0,0,0,0,-5.8292,-5.8312,-5.8252,-5.8484,-5.8538,-5.8562,-5.8689,-5.8617,-5.8704,-5.8682,-5.8618,-5.863,-5.8841,-5.8859,-5.8727,-5.9102,-5.8945,-5.8976,-5.9083,-5.913,-5.9168,-5.916,-5.8552,0,0,0,0,0,-5.8363,-5.8482,-5.8493,-5.8696,-5.8726,-5.8704,-5.8767,-5.8725,-5.8778,-5.88,-5.8817,-5.8874,-5.8984,-5.9058,-5.9159,-5.9413,-5.9421,-5.9533,-5.9571,-5.9602,-5.963,-5.9768,-5.9818,-5.9283,-5.9283,-5.9283,0,0,-5.851,-5.8535,-5.8615,-5.8737,-5.8773,-5.89,-5.8724,-5.8865,-5.8958,-5.8822,-5.9008,-5.9023,-5.9082,-5.9309,-5.9409,-5.9331,-5.978,-5.9631,-5.9656,-5.9667,-5.9796,-5.9847,-5.9892,-5.9299,-5.9296,-5.9294,0,0,-5.8843,-5.8874,-5.9047,-5.9087,-5.9145,-5.9129,-5.9171,-5.9207,-5.9211,-5.9397,-5.9298,-5.9409,-5.96,-5.9646,-5.9695,-6.0048,-5.9968,-6.0083,-6.0284,-6.0419,-6.0461,-6.0498,-6.0625,-6.0672,-6.011,-6.0111,-6.0111,0,-5.9019,-5.9204,-5.9146,-5.9294,-5.9352,-5.9233,-5.9409,-5.9452,-5.9541,-5.9584,-5.9494,-5.9732,-5.9764,-6.0,-6.0087,-6.013,-6.0177,-6.0078,-6.0459,-6.0496,-6.0529,-6.065,-6.0698,-6.0125,-6.0123,-6.0122,-6.012,0,-5.9418,-5.9549,-5.9682,-5.977,-5.9843,-6.0005,-5.9972,-6.0053,-6.0004,-5.9998,-6.019,-6.0224,-6.0331,-6.0384,-6.0338,-6.0615,-6.0565,-6.0469,-6.0309,-6.0595,-6.0708,-6.0753,-6.0144,-6.014,-6.0135,-6.0132,0,0,-5.9879,-5.9933,-5.9984,-6.0023,-6.0078,-6.0178,-6.0336,-6.0439,-6.0511,-6.0576,-6.0708,-6.0873,-6.0784,-6.084,-6.0799,-6.0917,-6.1197,-6.0806,-6.0806,-6.0879,-6.1506,-6.158,-6.1634,-6.1143,-6.1152,-6.1159,-6.1502,0,-6.0212,-6.0482,-6.0435,-6.0699,-6.0819,-6.0709,-6.0847,-6.0897,-6.0896,-6.0999,-6.0998,-6.1117,-6.099,-6.1023,-6.1135,-6.1139,-6.1322,-6.1113,-6.1267,-6.1273,-6.1257,-6.1693,-6.177,-6.2092,-6.1545,-6.1553,-6.1558,0,-6.0636,-6.0717,-6.0993,-6.1031,-6.108,-6.1204,-6.1296,-6.1396,-6.1451,-6.1442,-6.1506,-6.1443,-6.1601,-6.1439,-6.1658,-6.1518,-6.1578,-6.159,-6.1601,-6.1614,-6.1434,-6.172,-6.2194,-6.2243,-6.1627,-6.1621,-6.1616,0,-6.0947,-6.1125,-6.1313,-6.135,-6.1398,-6.1488,-6.1513,-6.1559,-6.1625,-6.1706,-6.1749,-6.1848,-6.1903,-6.1982,-6.1949,-6.1833,-6.2176,-6.201,-6.2174,-6.2176,-6.2252,-6.2248,-6.2744,-6.2289,-6.2288,-6.2287,-6.2286,0,-6.1324,-6.1498,-6.1453,-6.1569,-6.1761,-6.1706,-6.1897,-6.1909,-6.1951,-6.2069,-6.198,-6.2093,-6.204,-6.215,-6.2125,-6.2312,-6.2337,-6.2336,-6.2327,-6.2344,-6.2345,-6.2384,-6.2361,-6.23,-6.2297,-6.2295,-6.2293,0,-6.1703,-6.168,-6.1878,-6.1908,-6.192,-6.2061,-6.2087,-6.2196,-6.2188,-6.2339,-6.2371,-6.236,-6.2484,-6.2458,-6.2595,-6.2579,-6.2813,-6.2776,-6.2795,-6.2786,-6.2953,-6.2938,-6.3493,-6.3563,-6.3061,-6.3066,-6.307,0,-6.1946,-6.2077,-6.2121,-6.2193,-6.2225,-6.2342,-6.2409,-6.236,-6.2434,-6.2508,-6.2609,-6.2726,-6.2816,-6.3021,-6.3026,-6.3132,-6.3097,-6.3284,-6.3113,-6.3127,-6.3102,-6.3095,-6.3109,-6.3319,-6.3325,-6.3329,-6.3333,0,-6.238,-6.2362,-6.2461,-6.2559,-6.2641,-6.2715,-6.2781,-6.2845,-6.2802,-6.289,-6.3016,-6.3087,-6.3227,-6.3345,-6.3443,-6.3469,-6.3397,-6.3387,-6.3431,-6.3451,-6.3456,-6.3457,-6.2889,-6.3375,-6.3371,-6.3368,-6.3365,-6.3364,-6.2699,-6.2811,-6.286,-6.2974,-6.3019,-6.3083,-6.3187,-6.3193,-6.3297,-6.3407,-6.3372,-6.3517,-6.357,-6.3694,-6.3732,-6.3846,-6.3776,-6.3839,-6.3855,-6.3872,-6.3893,-6.3438,-6.3863,-6.3862,-6.3861,-6.386,-6.3859,0,-6.3129,-6.3155,-6.3261,-6.3356,-6.3447,-6.3368,-6.3438,-6.3519,-6.3647,-6.3703,-6.3794,-6.3941,-6.4055,-6.4069,-6.4178,-6.4266,-6.4235,-6.4296,-6.429,-6.4298,-6.3948,-6.39,-6.432,-6.4319,-6.4319,-6.4319,-6.4319,-6.4319,-6.3364,-6.3549,-6.3538,-6.3746,-6.3771,-6.3911,-6.3958,-6.4017,-6.4061,-6.4228,-6.4323,-6.4331,-6.4371,-6.4482,-6.4584,-6.4586,-6.4631,-6.4705,-6.4695,-6.4368,-6.4322,-6.4278,-6.4233,-6.4715,-6.4716,-6.5034,-6.5037,-6.5039]},{"header":{"parameterUnit":"m.s-1","parameterCategory":1,"la1":30.2991,"la2":30.254,"lo1":-89.0895,"lo2":-89.0444,"dy":0.0017,"dx":0.0017,"nx":28,"ny":28,"refTime":"2023-10-01T21:00:00:Z","depth":0,"parameterNumber":3,"parameterNumberName":"V-component_of_WINDS"},"data":[0,0,0,0,0,0,0,0,0,0,0,0,0,0,0,0,0,0,0,0,0,0,0,0,0,0,0,0,0,0,0,0,0,0,0,0,0,0,0,0,0,0,0,0,0,0,0,0,0,0,0,0,0,0,0,0,0,0,-1.3787,-1.3786,0,-1.3754,-1.3753,-1.3753,-1.3726,-1.3725,-1.3725,-1.3725,-1.3691,-1.3691,-1.369,0,0,0,0,0,0,0,0,0,0,0,0,0,-1.3825,-1.3824,-1.3787,-1.3786,-1.3786,-1.3754,-1.3753,-1.3753,-1.3726,-1.3725,-1.3725,-1.3725,-1.3692,-1.3691,-1.369,0,0,0,0,0,0,0,0,0,0,0,0,0,-1.3802,-1.3824,-1.3787,-1.3768,-1.3766,-1.3754,-1.3753,-1.3753,-1.3726,-1.3725,-1.3725,-1.3725,-1.3692,-1.3691,-1.369,-1.3693,0,0,-1.3687,-1.3687,0,0,0,0,0,0,0,0,-1.3803,-1.38,-1.3771,-1.377,-1.3767,-1.3743,-1.3754,-1.3733,-1.3726,-1.3741,-1.3725,-1.3724,-1.3709,-1.3707,-1.3701,-1.3691,-1.369,-1.3687,-1.3687,-1.3686,-1.3686,0,0,0,0,0,0,0,-1.3805,-1.3802,-1.3774,-1.3771,-1.3769,-1.3761,-1.3758,-1.375,-1.3728,-1.374,-1.3738,-1.3734,-1.3708,-1.3702,-1.37,-1.3689,-1.3687,-1.3686,-1.3686,-1.3685,-1.3678,-1.3678,0,0,0,0,0,0,-1.3809,-1.3803,-1.3775,-1.3773,-1.3785,-1.3761,-1.3757,-1.3752,-1.3728,-1.3724,-1.3735,-1.3733,-1.3704,-1.3702,-1.3699,-1.37,-1.3686,-1.3685,-1.3685,-1.3677,-1.3678,-1.3678,0,0,0,0,0,0,-1.381,-1.3807,-1.3776,-1.3787,-1.3783,-1.3761,-1.3755,-1.3751,-1.3746,-1.3724,-1.372,-1.3733,-1.3704,-1.3701,-1.3694,-1.3698,-1.3685,-1.3684,-1.3677,-1.3678,-1.3678,-1.3702,0,0,0,0,0,0,-1.3811,-1.3807,-1.3809,-1.3787,-1.3782,-1.3772,-1.3755,-1.3751,-1.3744,-1.3742,-1.3722,-1.3718,-1.3703,-1.3696,-1.3693,-1.3697,-1.3683,-1.3677,-1.3677,-1.3678,-1.37,-1.3703,-1.3705,0,0,0,0,0,-1.3813,-1.3817,-1.3809,-1.3806,-1.3783,-1.3772,-1.3769,-1.3752,-1.3745,-1.3745,-1.3731,-1.3719,-1.3698,-1.3695,-1.3692,-1.3695,-1.3676,-1.3677,-1.3678,-1.3699,-1.3702,-1.3705,0,0,0,0,0,0,-1.384,-1.3814,-1.3805,-1.3802,-1.379,-1.3768,-1.3768,-1.3756,-1.3745,-1.3744,-1.3723,-1.3719,-1.3714,-1.3704,-1.3702,-1.3696,-1.3685,-1.3686,-1.3703,-1.3705,-1.3708,-1.371,-1.3682,0,0,0,0,0,-1.3845,-1.3839,-1.3816,-1.3816,-1.381,-1.379,-1.3785,-1.3773,-1.3759,-1.3753,-1.3739,-1.3726,-1.3716,-1.371,-1.37,-1.3699,-1.3693,-1.3699,-1.3701,-1.3704,-1.3704,-1.3701,-1.3703,-1.3681,-1.3681,-1.3681,0,0,-1.3857,-1.3842,-1.3839,-1.3821,-1.381,-1.3803,-1.3786,-1.378,-1.3774,-1.3752,-1.3745,-1.3734,-1.3718,-1.3713,-1.3711,-1.3705,-1.3709,-1.3705,-1.3706,-1.3706,-1.3702,-1.3704,-1.3706,-1.3681,-1.3681,-1.3681,0,0,-1.3875,-1.3863,-1.3861,-1.385,-1.3833,-1.3819,-1.3818,-1.3798,-1.3789,-1.3782,-1.3765,-1.3757,-1.3742,-1.373,-1.3723,-1.3734,-1.3721,-1.3731,-1.3743,-1.374,-1.3742,-1.3743,-1.3746,-1.3748,-1.3732,-1.3732,-1.3732,0,-1.3891,-1.388,-1.3862,-1.3856,-1.3848,-1.3827,-1.3824,-1.3814,-1.3795,-1.379,-1.3783,-1.3762,-1.375,-1.3741,-1.3744,-1.3739,-1.3737,-1.3734,-1.3743,-1.3745,-1.3746,-1.3748,-1.3749,-1.3733,-1.3733,-1.3733,-1.3733,0,-1.3901,-1.3893,-1.3894,-1.3875,-1.3867,-1.3863,-1.3843,-1.3837,-1.3825,-1.3812,-1.3803,-1.3788,-1.3773,-1.3771,-1.3759,-1.376,-1.3757,-1.3747,-1.3736,-1.3749,-1.3751,-1.3752,-1.3735,-1.3734,-1.3734,-1.3734,0,0,-1.3935,-1.3905,-1.3905,-1.3896,-1.3875,-1.3868,-1.3863,-1.3848,-1.3843,-1.383,-1.3824,-1.381,-1.3801,-1.3792,-1.3779,-1.3776,-1.3784,-1.3766,-1.3766,-1.377,-1.3783,-1.379,-1.3791,-1.3776,-1.3776,-1.3776,-1.3784,0,-1.3949,-1.3938,-1.392,-1.3914,-1.3906,-1.3885,-1.388,-1.3866,-1.3853,-1.3844,-1.383,-1.382,-1.3809,-1.3803,-1.3799,-1.3784,-1.3787,-1.3783,-1.3769,-1.3769,-1.3774,-1.3793,-1.38,-1.3809,-1.3785,-1.3785,-1.3785,0,-1.3963,-1.3951,-1.3944,-1.3922,-1.3918,-1.3914,-1.3898,-1.389,-1.3873,-1.3864,-1.3853,-1.3838,-1.383,-1.382,-1.3808,-1.3806,-1.3799,-1.3791,-1.379,-1.3788,-1.3778,-1.379,-1.3811,-1.3812,-1.3786,-1.3786,-1.3786,0,-1.3988,-1.3969,-1.3962,-1.3955,-1.393,-1.3927,-1.3916,-1.3898,-1.389,-1.3877,-1.3871,-1.3857,-1.3849,-1.3838,-1.3819,-1.3814,-1.3809,-1.3798,-1.38,-1.38,-1.38,-1.38,-1.3819,-1.3796,-1.3796,-1.3796,-1.3796,0,-1.4005,-1.4001,-1.3973,-1.3969,-1.3964,-1.3943,-1.3938,-1.3925,-1.391,-1.3902,-1.3884,-1.3877,-1.3853,-1.3843,-1.3828,-1.382,-1.3816,-1.3808,-1.3804,-1.3809,-1.381,-1.3804,-1.3803,-1.3797,-1.3797,-1.3796,-1.3796,0,-1.4032,-1.4013,-1.4004,-1.398,-1.3973,-1.3971,-1.395,-1.3944,-1.393,-1.392,-1.3917,-1.3894,-1.3881,-1.3861,-1.3843,-1.3833,-1.3826,-1.382,-1.3832,-1.3829,-1.3832,-1.3832,-1.3848,-1.3848,-1.3826,-1.3826,-1.3827,0,-1.4043,-1.404,-1.4015,-1.4009,-1.3998,-1.3988,-1.3979,-1.3958,-1.395,-1.3929,-1.3926,-1.3912,-1.3899,-1.3879,-1.386,-1.3846,-1.3839,-1.3845,-1.3836,-1.3841,-1.3838,-1.3838,-1.3837,-1.3847,-1.3848,-1.3848,-1.3848,0,-1.4066,-1.4056,-1.4045,-1.4029,-1.4019,-1.4006,-1.3992,-1.3988,-1.3964,-1.3955,-1.3941,-1.3931,-1.3912,-1.3897,-1.3879,-1.3867,-1.3853,-1.3851,-1.385,-1.3856,-1.3862,-1.3858,-1.3837,-1.3851,-1.385,-1.385,-1.385,-1.385,-1.4085,-1.408,-1.4062,-1.4049,-1.4036,-1.4023,-1.4016,-1.4,-1.3989,-1.3971,-1.3959,-1.3946,-1.3927,-1.3902,-1.389,-1.3879,-1.3873,-1.3873,-1.3873,-1.3873,-1.3874,-1.3864,-1.3876,-1.3876,-1.3875,-1.3875,-1.3875,0,-1.4105,-1.4092,-1.4081,-1.4061,-1.4051,-1.4038,-1.4022,-1.4014,-1.4002,-1.3986,-1.3974,-1.3957,-1.3942,-1.3922,-1.3906,-1.39,-1.3893,-1.3897,-1.3897,-1.3894,-1.3881,-1.3882,-1.3902,-1.3902,-1.3902,-1.3902,-1.3902,-1.3902,-1.4115,-1.4106,-1.4094,-1.4078,-1.4065,-1.4052,-1.4043,-1.403,-1.4017,-1.4,-1.3987,-1.3974,-1.3956,-1.3937,-1.3923,-1.3917,-1.3912,-1.3917,-1.3909,-1.3897,-1.3895,-1.3893,-1.3894,-1.3916,-1.3916,-1.3923,-1.3923,-1.3923]}]]